[[{"header":{"parameterUnit":"m.s-1","parameterCategory":1,"la1":30.2991,"la2":30.254,"lo1":-89.0895,"lo2":-89.0444,"dy":0.0017,"dx":0.0017,"nx":28,"ny":28,"refTime":"2024-05-15T09:00:00:Z","depth":0,"parameterNumber":2,"parameterNumberName":"U-component_of_WINDS"},"data":[0,0,0,0,0,0,0,0,0,0,0,0,0,0,0,0,0,0,0,0,0,0,0,0,0,0,0,0,0,0,0,0,0,0,0,0,0,0,0,0,0,0,0,0,0,0,0,0,0,0,0,0,0,0,0,0,0,0,-0.6221,-0.622,0,-0.6128,-0.6127,-0.6125,-0.6084,-0.6084,-0.6085,-0.6085,-0.5984,-0.5981,-0.5978,0,0,0,0,0,0,0,0,0,0,0,0,0,-0.6357,-0.6355,-0.6221,-0.622,-0.6219,-0.6128,-0.6126,-0.6125,-0.6084,-0.6084,-0.6085,-0.6085,-0.5985,-0.5981,-0.5978,0,0,0,0,0,0,0,0,0,0,0,0,0,-0.6284,-0.6354,-0.6221,-0.6188,-0.6184,-0.6128,-0.6126,-0.6125,-0.6084,-0.6084,-0.6085,-0.6085,-0.5986,-0.5982,-0.5978,-0.5947,0,0,-0.5965,-0.5963,0,0,0,0,0,0,0,0,-0.6289,-0.6279,-0.6194,-0.619,-0.6185,-0.6118,-0.6137,-0.6065,-0.6084,-0.6122,-0.6085,-0.6085,-0.6028,-0.602,-0.6002,-0.5942,-0.5938,-0.5964,-0.5962,-0.596,-0.5959,0,0,0,0,0,0,0,-0.6294,-0.6283,-0.6184,-0.6192,-0.6187,-0.6175,-0.6165,-0.6124,-0.6075,-0.6119,-0.6115,-0.6105,-0.6026,-0.6006,-0.5999,-0.5936,-0.5964,-0.5961,-0.5958,-0.5956,-0.5843,-0.5842,0,0,0,0,0,0,-0.6305,-0.6288,-0.6187,-0.6181,-0.6239,-0.6172,-0.6161,-0.6139,-0.6075,-0.6065,-0.6105,-0.6104,-0.6013,-0.6004,-0.5996,-0.5953,-0.596,-0.5956,-0.5953,-0.5843,-0.5843,-0.5842,0,0,0,0,0,0,-0.6308,-0.6297,-0.6191,-0.6233,-0.6219,-0.617,-0.6146,-0.6137,-0.6118,-0.6065,-0.6055,-0.6095,-0.6013,-0.6002,-0.5959,-0.5949,-0.5954,-0.595,-0.5844,-0.5843,-0.5842,-0.587,0,0,0,0,0,0,-0.6312,-0.6298,-0.6288,-0.6234,-0.6217,-0.6158,-0.6145,-0.6135,-0.6111,-0.6109,-0.6053,-0.6043,-0.6012,-0.5965,-0.5955,-0.5943,-0.5947,-0.5844,-0.5843,-0.5843,-0.5869,-0.587,-0.587,0,0,0,0,0,-0.6317,-0.6299,-0.6288,-0.6276,-0.6204,-0.6158,-0.6148,-0.6114,-0.6111,-0.6099,-0.6064,-0.6045,-0.5952,-0.5961,-0.5949,-0.5936,-0.5845,-0.5844,-0.5843,-0.5869,-0.587,-0.587,0,0,0,0,0,0,-0.6352,-0.6291,-0.6278,-0.6242,-0.6205,-0.6151,-0.6135,-0.6116,-0.6079,-0.6077,-0.6035,-0.6023,-0.5983,-0.5955,-0.5967,-0.5901,-0.5897,-0.5893,-0.5921,-0.5921,-0.5922,-0.5929,-0.5943,0,0,0,0,0,-0.6356,-0.6326,-0.6273,-0.6246,-0.6229,-0.6185,-0.6164,-0.6141,-0.61,-0.6084,-0.6046,-0.6006,-0.5967,-0.5943,-0.5905,-0.5865,-0.585,-0.585,-0.5851,-0.5851,-0.5848,-0.5822,-0.582,-0.5839,-0.5839,-0.5839,0,0,-0.6363,-0.6326,-0.6309,-0.6252,-0.6221,-0.6188,-0.6172,-0.6139,-0.6113,-0.6078,-0.6036,-0.6006,-0.5958,-0.5916,-0.5896,-0.5892,-0.584,-0.585,-0.5851,-0.5847,-0.582,-0.5819,-0.5817,-0.5838,-0.5838,-0.5838,0,0,-0.6358,-0.6328,-0.6301,-0.627,-0.6223,-0.6194,-0.6188,-0.6135,-0.6114,-0.6071,-0.6044,-0.6011,-0.5947,-0.5913,-0.5887,-0.5866,-0.5846,-0.5855,-0.5857,-0.5832,-0.583,-0.5829,-0.5819,-0.5816,-0.5852,-0.5852,-0.5852,0,-0.6372,-0.6323,-0.6289,-0.6257,-0.6231,-0.6199,-0.6169,-0.614,-0.6083,-0.6065,-0.6062,-0.5978,-0.5943,-0.5891,-0.5886,-0.5867,-0.5856,-0.5861,-0.5834,-0.5832,-0.583,-0.582,-0.5816,-0.5853,-0.5853,-0.5853,-0.5853,0,-0.6341,-0.6308,-0.6291,-0.6237,-0.621,-0.6179,-0.6137,-0.6113,-0.6092,-0.6062,-0.6016,-0.5973,-0.5924,-0.591,-0.5889,-0.5854,-0.5853,-0.5843,-0.5836,-0.583,-0.5819,-0.5815,-0.5855,-0.5855,-0.5854,-0.5854,0,0,-0.6357,-0.6283,-0.6278,-0.6251,-0.6196,-0.6168,-0.6134,-0.6088,-0.6066,-0.6027,-0.5995,-0.594,-0.5929,-0.59,-0.5874,-0.5852,-0.5835,-0.5844,-0.5842,-0.5841,-0.579,-0.5797,-0.5793,-0.5822,-0.5821,-0.582,-0.5793,0,-0.6344,-0.6284,-0.625,-0.6203,-0.6169,-0.6137,-0.6107,-0.6068,-0.6039,-0.6004,-0.597,-0.5931,-0.5921,-0.5902,-0.5879,-0.5842,-0.5823,-0.5844,-0.5789,-0.5787,-0.58,-0.5788,-0.5796,-0.5773,-0.5789,-0.5788,-0.5788,0,-0.632,-0.6282,-0.6232,-0.6177,-0.6162,-0.6136,-0.6089,-0.6057,-0.6011,-0.599,-0.5957,-0.5931,-0.589,-0.5888,-0.583,-0.5844,-0.5819,-0.5797,-0.5795,-0.5787,-0.5786,-0.5778,-0.5765,-0.576,-0.5781,-0.5782,-0.5782,0,-0.6334,-0.627,-0.623,-0.6209,-0.6146,-0.6128,-0.61,-0.6054,-0.6027,-0.5985,-0.5966,-0.592,-0.5894,-0.5857,-0.5818,-0.582,-0.5762,-0.5757,-0.5741,-0.5742,-0.5729,-0.5731,-0.571,-0.5717,-0.5717,-0.5717,-0.5717,0,-0.6322,-0.6291,-0.6235,-0.6211,-0.6175,-0.6136,-0.61,-0.607,-0.6029,-0.5995,-0.5964,-0.5933,-0.5884,-0.5846,-0.5815,-0.577,-0.5759,-0.5739,-0.573,-0.574,-0.5743,-0.5723,-0.5722,-0.5716,-0.5716,-0.5716,-0.5717,0,-0.6331,-0.6293,-0.6247,-0.6191,-0.6175,-0.6151,-0.6101,-0.6074,-0.6042,-0.6001,-0.5988,-0.5937,-0.5891,-0.5848,-0.5786,-0.5764,-0.5717,-0.5708,-0.5733,-0.5729,-0.5714,-0.5715,-0.5678,-0.567,-0.5685,-0.5685,-0.5685,0,-0.6325,-0.6301,-0.6241,-0.6218,-0.6191,-0.6153,-0.6125,-0.6084,-0.6056,-0.6,-0.5979,-0.593,-0.5889,-0.5815,-0.5771,-0.5722,-0.571,-0.57,-0.5702,-0.5712,-0.5706,-0.5708,-0.5703,-0.57,-0.57,-0.57,-0.57,0,-0.6318,-0.6299,-0.6262,-0.6216,-0.6183,-0.6145,-0.6106,-0.6087,-0.6038,-0.6007,-0.596,-0.5928,-0.5863,-0.5814,-0.576,-0.5728,-0.5704,-0.57,-0.5693,-0.5702,-0.5717,-0.5706,-0.5732,-0.5701,-0.5701,-0.5701,-0.5701,-0.5701,-0.6318,-0.6294,-0.6247,-0.6205,-0.6171,-0.6134,-0.6105,-0.6069,-0.6029,-0.5975,-0.5952,-0.5903,-0.5853,-0.5778,-0.5746,-0.5705,-0.57,-0.5691,-0.5689,-0.5687,-0.5687,-0.5725,-0.5695,-0.5695,-0.5695,-0.5695,-0.5695,0,-0.6307,-0.6275,-0.6236,-0.6182,-0.6147,-0.613,-0.6085,-0.6056,-0.6014,-0.5971,-0.593,-0.5873,-0.5824,-0.5776,-0.5723,-0.5699,-0.5687,-0.5686,-0.5687,-0.5679,-0.5696,-0.5706,-0.5697,-0.5697,-0.5697,-0.5697,-0.5697,-0.5697,-0.6297,-0.6255,-0.623,-0.6168,-0.6136,-0.6089,-0.6063,-0.6028,-0.5993,-0.5931,-0.5891,-0.586,-0.5813,-0.5756,-0.5709,-0.5696,-0.5676,-0.5679,-0.5662,-0.5678,-0.5678,-0.5679,-0.5688,-0.5676,-0.5676,-0.5648,-0.5648,-0.5648]},{"header":{"parameterUnit":"m.s-1","parameterCategory":1,"la1":30.2991,"la2":30.254,"lo1":-89.0895,"lo2":-89.0444,"dy":0.0017,"dx":0.0017,"nx":28,"ny":28,"refTime":"2024-05-15T09:00:00:Z","depth":0,"parameterNumber":3,"parameterNumberName":"V-component_of_WINDS"},"data":[0,0,0,0,0,0,0,0,0,0,0,0,0,0,0,0,0,0,0,0,0,0,0,0,0,0,0,0,0,0,0,0,0,0,0,0,0,0,0,0,0,0,0,0,0,0,0,0,0,0,0,0,0,0,0,0,0,0,-0.3487,-0.3487,0,-0.3437,-0.3436,-0.3435,-0.3446,-0.3446,-0.3447,-0.3448,-0.3393,-0.339,-0.3388,0,0,0,0,0,0,0,0,0,0,0,0,0,-0.3588,-0.3586,-0.3487,-0.3487,-0.3486,-0.3437,-0.3436,-0.3435,-0.3445,-0.3447,-0.3448,-0.3449,-0.3393,-0.3391,-0.3388,0,0,0,0,0,0,0,0,0,0,0,0,0,-0.3541,-0.3585,-0.3487,-0.3485,-0.3485,-0.3437,-0.3436,-0.3435,-0.3445,-0.3447,-0.3448,-0.3449,-0.3394,-0.3391,-0.3387,-0.3337,0,0,-0.3376,-0.3375,0,0,0,0,0,0,0,0,-0.3544,-0.3537,-0.3486,-0.3485,-0.3484,-0.3449,-0.3451,-0.3402,-0.3445,-0.346,-0.3448,-0.345,-0.341,-0.3405,-0.3392,-0.3335,-0.3332,-0.3376,-0.3374,-0.3373,-0.3372,0,0,0,0,0,0,0,-0.3547,-0.354,-0.3467,-0.3485,-0.3484,-0.3485,-0.348,-0.3442,-0.3428,-0.3459,-0.3459,-0.3453,-0.341,-0.3396,-0.3391,-0.3332,-0.3376,-0.3373,-0.3371,-0.337,-0.3226,-0.3225,0,0,0,0,0,0,-0.3552,-0.3542,-0.3469,-0.3466,-0.3518,-0.3482,-0.3476,-0.3459,-0.3428,-0.3425,-0.3452,-0.3454,-0.3401,-0.3395,-0.3389,-0.3326,-0.3373,-0.3369,-0.3367,-0.3228,-0.3226,-0.3224,0,0,0,0,0,0,-0.3554,-0.3545,-0.3471,-0.3504,-0.3495,-0.3479,-0.3459,-0.3457,-0.3443,-0.3423,-0.342,-0.3441,-0.3402,-0.3394,-0.335,-0.3324,-0.3368,-0.3364,-0.323,-0.3227,-0.3225,-0.3201,0,0,0,0,0,0,-0.3557,-0.3546,-0.3528,-0.3504,-0.3493,-0.3434,-0.3458,-0.3455,-0.3438,-0.344,-0.3412,-0.3409,-0.3403,-0.3355,-0.3346,-0.332,-0.3362,-0.3232,-0.3229,-0.3226,-0.3204,-0.3198,-0.3193,0,0,0,0,0,-0.356,-0.3523,-0.3527,-0.3518,-0.3471,-0.3432,-0.3426,-0.3421,-0.3436,-0.3416,-0.3403,-0.3409,-0.3329,-0.335,-0.334,-0.3313,-0.3234,-0.323,-0.3226,-0.3206,-0.3199,-0.3193,0,0,0,0,0,0,-0.3544,-0.352,-0.3524,-0.3479,-0.3457,-0.3434,-0.341,-0.3414,-0.3387,-0.339,-0.3383,-0.3377,-0.3331,-0.3318,-0.3342,-0.3261,-0.3283,-0.3277,-0.3271,-0.3264,-0.3259,-0.3262,-0.3359,0,0,0,0,0,-0.3536,-0.3508,-0.3488,-0.3449,-0.3439,-0.3426,-0.3409,-0.3407,-0.3384,-0.3375,-0.3359,-0.3335,-0.3304,-0.3284,-0.3255,-0.3202,-0.3195,-0.3179,-0.3173,-0.3169,-0.3163,-0.3131,-0.3122,-0.3212,-0.3212,-0.3212,0,0,-0.3517,-0.3501,-0.3483,-0.3446,-0.3429,-0.3398,-0.3418,-0.3386,-0.3362,-0.337,-0.3326,-0.3313,-0.3286,-0.3237,-0.3214,-0.3224,-0.3137,-0.3164,-0.316,-0.3157,-0.3126,-0.3118,-0.311,-0.3209,-0.321,-0.321,0,0,-0.3467,-0.3453,-0.3418,-0.3401,-0.3376,-0.3367,-0.3359,-0.3334,-0.3326,-0.3282,-0.3286,-0.3257,-0.3205,-0.3185,-0.3168,-0.3108,-0.3111,-0.3098,-0.3068,-0.3037,-0.303,-0.3024,-0.2999,-0.2991,-0.3093,-0.3093,-0.3093,0,-0.3447,-0.3403,-0.34,-0.3366,-0.3347,-0.3354,-0.3316,-0.3299,-0.3265,-0.3252,-0.3264,-0.3197,-0.3179,-0.3123,-0.3109,-0.3096,-0.3083,-0.3101,-0.3032,-0.3025,-0.3019,-0.2996,-0.2987,-0.3091,-0.3091,-0.3092,-0.3092,0,-0.3377,-0.3346,-0.3321,-0.3288,-0.3267,-0.3232,-0.3221,-0.32,-0.3199,-0.3188,-0.3142,-0.3121,-0.3086,-0.3073,-0.3072,-0.3016,-0.3023,-0.3034,-0.3055,-0.3009,-0.2987,-0.2978,-0.3089,-0.309,-0.309,-0.309,0,0,-0.3316,-0.3281,-0.3271,-0.3255,-0.3227,-0.3201,-0.3165,-0.3132,-0.3112,-0.3088,-0.3055,-0.301,-0.3019,-0.3,-0.2996,-0.2969,-0.2918,-0.2982,-0.2982,-0.2969,-0.2852,-0.2842,-0.2832,-0.2922,-0.292,-0.2919,-0.2853,0,-0.3262,-0.3199,-0.3194,-0.3136,-0.3106,-0.311,-0.3078,-0.3055,-0.3044,-0.3015,-0.3002,-0.2969,-0.2985,-0.2972,-0.2946,-0.293,-0.2894,-0.2935,-0.2888,-0.2886,-0.2892,-0.282,-0.2811,-0.275,-0.2844,-0.2843,-0.2842,0,-0.319,-0.3163,-0.3103,-0.3076,-0.3063,-0.3034,-0.3001,-0.2975,-0.2948,-0.2941,-0.2919,-0.2918,-0.2878,-0.2902,-0.2845,-0.2872,-0.2853,-0.2842,-0.2839,-0.2833,-0.286,-0.2809,-0.273,-0.272,-0.2829,-0.283,-0.2831,0,-0.3148,-0.3097,-0.3053,-0.304,-0.3008,-0.2987,-0.2973,-0.2948,-0.2927,-0.2898,-0.2884,-0.2851,-0.2832,-0.2805,-0.2794,-0.2813,-0.2736,-0.276,-0.2726,-0.2726,-0.2708,-0.2709,-0.2622,-0.27,-0.27,-0.27,-0.2701,0,-0.3086,-0.3048,-0.3033,-0.3006,-0.2963,-0.2957,-0.2913,-0.29,-0.2877,-0.2845,-0.2847,-0.2817,-0.2806,-0.2774,-0.2765,-0.2717,-0.2709,-0.27,-0.2698,-0.2698,-0.2699,-0.2684,-0.2687,-0.2698,-0.2699,-0.2699,-0.2699,0,-0.3031,-0.302,-0.2972,-0.2946,-0.2938,-0.2907,-0.2883,-0.2856,-0.2845,-0.2805,-0.2795,-0.2776,-0.2738,-0.2725,-0.2678,-0.2672,-0.2615,-0.2618,-0.2624,-0.2623,-0.2589,-0.2591,-0.2487,-0.2471,-0.2562,-0.2561,-0.2561,0,-0.2991,-0.2961,-0.2932,-0.2911,-0.2896,-0.2863,-0.2842,-0.2834,-0.2811,-0.2777,-0.2753,-0.2715,-0.2684,-0.2621,-0.2602,-0.2566,-0.2565,-0.2532,-0.256,-0.256,-0.2561,-0.2562,-0.2557,-0.2526,-0.2525,-0.2524,-0.2523,0,-0.292,-0.2915,-0.2885,-0.2852,-0.2827,-0.28,-0.2774,-0.2757,-0.2745,-0.2718,-0.2679,-0.2655,-0.2607,-0.2568,-0.253,-0.2513,-0.2514,-0.2515,-0.2504,-0.2503,-0.2507,-0.2501,-0.2606,-0.2517,-0.2517,-0.2518,-0.2518,-0.2518,-0.2869,-0.2842,-0.2816,-0.2781,-0.2761,-0.2736,-0.2708,-0.2693,-0.2661,-0.2621,-0.2619,-0.2575,-0.2546,-0.2496,-0.2477,-0.2441,-0.245,-0.2436,-0.2432,-0.2428,-0.2424,-0.2515,-0.2434,-0.2435,-0.2435,-0.2435,-0.2435,0,-0.2795,-0.2779,-0.2747,-0.2711,-0.2682,-0.2689,-0.266,-0.2635,-0.2597,-0.2571,-0.254,-0.2493,-0.2454,-0.2432,-0.2393,-0.2368,-0.2368,-0.2358,-0.2358,-0.2353,-0.2419,-0.2431,-0.2359,-0.2359,-0.2359,-0.2359,-0.2359,-0.2359,-0.2754,-0.2707,-0.2699,-0.2642,-0.2625,-0.2583,-0.2565,-0.2541,-0.252,-0.2468,-0.2436,-0.2422,-0.2396,-0.2355,-0.2319,-0.2313,-0.2297,-0.2285,-0.228,-0.2342,-0.2349,-0.2357,-0.2367,-0.2283,-0.2283,-0.2216,-0.2216,-0.2215]}]]